Flag for U.S.A. Weather past 2 weeks in Santa Clara, California, U.S.A.

Now
55 °F

Mostly cloudy.


Feels Like: 55 °F
Forecast: 56 / 67 °F
Wind: No wind

Location: San Jose International Airport

Current Time: May 22, 2015 at 7:08:19 AM

Latest Report: May 22, 2015 at 5:53 AM


Visibility: 10 mi

Pressure: 29.99 "Hg

Humidity: 74%

Dew point: 47 °F

Location of Santa ClaraLocation

Historic Weather in Santa Clara — Graph

°F

Santa Clara temperature yesterday

Maximum temperature yesterday: 67 °F (at 11:53 AM)
Minimum temperature yesterday: 57 °F (at 12:53 AM)
Average temperature yesterday: 61 °F

Past Weeks' High & Low Weather Summary

 TemperatureHumidityPressure
High71 °F (May 8, 1:53 PM)100% (May 14, 4:53 PM)30.13 "Hg (May 14, 4:53 PM)
Low47 °F (May 12, 5:53 AM)34% (May 12, 4:53 PM)29.75 "Hg (May 7, 4:53 PM)
Average58 °F66%29.97 "Hg
* Reported May 7 5:53 AM — May 22 5:53 AM, Santa Clara, Weather by CustomWeather, © 2015

Note: Actual official high and low records may vary slightly from our data, if they occured in-between our weather recording intervals... More about our weather records

Advertising

Santa Clara weather history for previous 24 hours

 ConditionsComfort  
Time TempWeatherWind HumidityBarometerVisibility
5:53 AM
Fri, May 22
55 °FMostly cloudy.No wind74%29.99 "Hg10 mi
5:02 AM55 °FMostly cloudy.No wind72%29.99 "Hg10 mi
4:53 AM55 °FOvercast.No wind74%29.99 "Hg10 mi
3:53 AM55 °FPassing clouds.No wind74%29.98 "Hg10 mi
2:53 AM54 °FPassing clouds.5 mph77%29.98 "Hg10 mi
1:53 AM57 °FOvercast.No wind78%29.98 "Hg10 mi
12:53 AM56 °FClear.5 mph77%29.98 "Hg10 mi
11:53 PM
Thu, May 21
58 °FPassing clouds.3 mph78%29.98 "Hg10 mi
10:53 PM58 °FPartly cloudy.9 mph78%29.98 "Hg10 mi
9:53 PM59 °FPartly cloudy.6 mph69%29.97 "Hg10 mi
8:53 PM60 °FBroken clouds.9 mph69%29.96 "Hg10 mi
7:53 PM62 °FBroken clouds.15 mph60%29.94 "Hg10 mi
6:53 PM63 °FBroken clouds.12 mph58%29.93 "Hg10 mi
5:53 PM64 °FBroken clouds.13 mph56%29.92 "Hg10 mi
4:53 PM66 °FBroken clouds.13 mph52%29.91 "Hg10 mi
3:53 PM66 °FBroken clouds.9 mph50%29.92 "Hg10 mi
2:53 PM64 °FPartly sunny.12 mph63%29.93 "Hg10 mi
1:53 PM65 °FBroken clouds.12 mph61%29.93 "Hg10 mi
12:53 PM67 °FBroken clouds.10 mph55%29.93 "Hg10 mi
11:53 AM67 °FBroken clouds.5 mph55%29.94 "Hg10 mi
10:53 AM63 °FPartly sunny.5 mph58%29.94 "Hg10 mi
9:53 AM62 °FPartly sunny.No wind58%29.95 "Hg10 mi
8:53 AM60 °FMostly cloudy.No wind60%29.95 "Hg10 mi
7:53 AM59 °FMostly cloudy.3 mph64%29.95 "Hg10 mi
Weather by CustomWeather, © 2015

See weather overviewHow to use our weather pages